Regional Weather Roundup
Issued by NWS

Home | Current Version | Previous Version | Graphics & Text | Print | Product List | Glossary On
Versions: 1 2 3 4 5 6 7 8 9 10 11 12 13 14 15 16 17 18 19 20 21 22 23 24 25 26 27 28 29 30 31 32 33 34 35 36 37 38 39 40 41 42 43 44 45 46 47 48 49 50
000
ASUS43 KLOT 260409
RWRIL

ILLINOIS REGIONAL WEATHER ROUNDUP
NATIONAL WEATHER SERVICE CHICAGO/ROMEOVILLE IL
1100 PM CDT TUE JUL 25 2017

NOTE: "FAIR" INDICATES FEW OR NO CLOUDS BELOW 12,000 FEET WITH NO
SIGNIFICANT WEATHER AND/OR OBSTRUCTIONS TO VISIBILITY.

* THESE STATIONS ARE NOT UNDER NWS QUALITY CONTROL. THEY ALSO MAY NOT
  REPORT WEATHER SUCH AS PRECIPITATION OR FOG.

ILZ001-002-007-009-015-016-024-260500-
NORTHWEST ILLINOIS

CITY           SKY/WX    TMP DP  RH WIND       PRES   REMARKS
MOLINE         MOCLDY    73  67  81 SE6       30.07F
STERLING*      PTCLDY    68  63  84 SE3       30.11F
SAVANNA*       PTCLDY    71  65  84 SE8       30.09F
$$

ILZ003-004-008-010-011-017-018-260500-
NORTH CENTRAL ILLINOIS

CITY           SKY/WX    TMP DP  RH WIND       PRES   REMARKS
ROCKFORD       CLOUDY    70  61  73 SE12      30.12F
FREEPORT*      CLOUDY    65  63  91 SE6       30.13F
ROCHELLE*      CLOUDY    65  62  88 SE5       30.12F
DE KALB*       PTCLDY    67  61  83 SE7       30.14F
PERU*          CLOUDY   N/A N/A N/A SE8       30.12F
$$

ILZ005-006-012>014-019>023-260500-
NORTHEAST ILLINOIS

CITY           SKY/WX    TMP DP  RH WIND       PRES   REMARKS
CHICAGO-OHARE  PTCLDY    70  58  65 S5        30.14F
CHICAGO-MIDWAY MOCLDY    74  59  59 SE7       30.14F
AURORA         CLOUDY    67  61  81 SE6       30.14S
LANSING*       CLEAR     67  58  71 CALM      30.16S
JOLIET*        CLOUDY    70  62  75 SE3       30.14S
WAUKEGAN       PTCLDY    70  62  76 S7        30.12F
DUPAGE AIRPORT CLOUDY    67  59  75 SE3       30.13F
KANKAKEE*      CLEAR     64  61  88 SE5       30.15F
WHEELING       CLEAR     70  61  73 S7        30.14F
MORRIS*        CLOUDY    67  61  82 SE7       30.12F
ROMEOVILLE*    CLOUDY    66  58  76 SE6       30.14S
NORTHERLY ISL    N/A     72  57  59 S3          N/A
$$

LMZ740>746-260500-
SOUTHERN LAKE MICHIGAN

STATION/POSITION SKY/WX   TEMP    WIND        PRES    VSBY  WAVE
                          AIR SEA DIR/SP/G                  HT/PER
                          (F)     (DEG/KT/KT) (MB)    (MI)  (FT/S)
SOUTHERN BUOY              72 71  160/ 10/ 12 1020.6F         1
WILMETTE HARBOR            73 72  170/ 12/ 14   N/A           2/ 3
HARRISON CRIB              75     180/ 15/ 16   N/A
BURNHAM HARBOR             72                   N/A
CALUMET HARBOR             73     140/  6/  8 1020.2F
BURNS HARBOR               72     170/  4/ 10 1021.7F
MICHIGAN CITY              70     110/  3/  3   N/A
MICHIGAN CITY 6N           72 74  170/  4/  6   N/A           0
ST. JOSEPH                 70 72  170/  4/  6 1021.2          1
$$

ILZ025>027-034>036-040-047-049-050-058-095>099-260500-
WEST-CENTRAL ILLINOIS

CITY           SKY/WX    TMP DP  RH WIND       PRES   REMARKS
QUINCY         CLOUDY    76  70  82 SE7       30.08S
GALESBURG*     CLOUDY    71  67  86 E5        30.10F
MACOMB*        CLOUDY    71  68  92 E5        30.11S
JACKSONVILLE*  CLEAR     73  68  84 E8        30.10S
PITTSFIELD*    CLEAR     74  71  89 E5        30.10S
$$

ILZ028>032-037-038-041>044-048-051>054-059>061-260500-
CENTRAL ILLINOIS

CITY           SKY/WX    TMP DP  RH WIND       PRES   REMARKS
PONTIAC        CLOUDY    66  65  98 SE6       30.14F
BLOOMINGTON    CLEAR     66  62  87 E7        30.15S
DECATUR        CLEAR     67  65  93 E5        30.13S
PEORIA         CLOUDY    74  67  78 SE8       30.10F
LACON*         CLOUDY    70  64  80 SE7       30.10F
LINCOLN*       CLEAR     70  68  94 CALM      30.12F
SPRINGFIELD    CLEAR     74  69  85 SE8       30.11F
TAYLORVILLE    CLEAR     72  68  88 E6        30.12S
$$

ILZ033-039-045-046-055>057-062-063-260500-
EAST-CENTRAL ILLINOIS

CITY           SKY/WX    TMP DP  RH WIND       PRES   REMARKS
CHAMPAIGN      CLEAR     66  62  87 E6        30.15S
RANTOUL*       CLEAR     69  64  84 E5        30.15S
MATTOON        CLEAR     68  67  96 SE5       30.12F
PARIS*         CLEAR     64  63  94 CALM      30.15S
$$

ILZ079-100>102-260500-
SOUTHWEST ILLINOIS

CITY           SKY/WX    TMP DP  RH WIND       PRES   REMARKS
ALTON          CLEAR     74  71  90 E6        30.09S
BELLEVILLE     CLOUDY    78  72  82 SE7       30.10R
CAHOKIA*       MOCLDY    81  71  71 SE7       30.08R HX  85
SPARTA*        CLEAR     78  71  80 E6        30.09S HX  80
$$

ILZ064>066-069>071-074>076-080>082-084>086-088>090-092>094-260500-
SOUTH-CENTRAL ILLINOIS

CITY           SKY/WX    TMP DP  RH WIND       PRES   REMARKS
CARBONDALE     CLEAR     77  74  90 E6        30.09S
CAIRO*         CLEAR     78  74  89 CALM      30.08S HX  80
EFFINGHAM*     CLEAR     71  70  96 E3        30.13F
MARION         CLEAR     79  77  94 NE5       30.10S HX  83
MT. VERNON     CLEAR     74  70  87 NE5       30.11S
CENTRALIA*     MOCLDY    76  72  86 E3        30.10S
SALEM*         MOCLDY    77  69  77 CALM      30.11S
METROPOLIS*    CLEAR     77  74  92 CALM      30.10R
$$

ILZ067-068-072-073-078-083-087-091-260500-
SOUTHEAST ILLINOIS

CITY           SKY/WX    TMP DP  RH WIND       PRES   REMARKS
LAWRENCEVILLE  CLEAR     72  68  87 E7        30.13R
FLORA*         MOCLDY    75  70  85 CALM      30.12S
FAIRFIELD*     CLEAR     75  69  83 CALM      30.11R
HARRISBURG*    CLEAR     75  73  91 CALM      30.11R
ROBINSON*      CLEAR     67  66  97 E3        30.14S
CARMI*         CLEAR     73  71  95 NE3       30.11R
$$

ABBREVIATIONS USED IN REMARKS
   TC - TEMPERATURE IN CELSIUS
  WCI - WIND CHILL INDEX
   HX - HEAT INDEX
  VSB - VISIBILITY
$$





USA.gov is the U.S. government's official web portal to all federal, state and local government web resources and services.